Location: Fort Worth, Tx
(32.7431°N, 97.3695°W)
Time: 20:43:06
(UTC-04:00)

Vanguard 1 Rocket - Pass Details

Date: 15 September 2024
Orbit: 650 x 4218 km, 34.3° (Epoch: 11 October)

Event Time Altitude Azimuth Distance (km) Brightness Sun altitude
Exits shadow 03:55:23 38° 121° (ESE) 3,429 10.1 -48.5°
Drops below altitude 10° 04:10:24 10° 75° (ENE) 6,601 12.2 -46.5°
Sets 04:17:00 0° 70° (ENE) 8,048 12.8 -45.6°
